Terminal Aerodrome Forecast
Issued by NWS Columbia, SC

Home | Current Version | Previous Version | Text Only | Print | Product List | Glossary On
Versions: 1 2 3 4 5 6 7 8 9 10 11 12 13 14 15 16 17 18 19 20 21 22 23 24 25 26 27 28 29 30 31 32 33 34 35 36 37 38 39 40 41 42 43 44 45 46 47 48 49 50
000
FTUS42 KCAE 220645 AAB
TAFAGS
TAF AMD
KAGS 220645Z 2207/2306 VRB03KT 3SM BR FEW250
      TEMPO 2207/2211 1/4SM FG OVC004
     FM221100 VRB03KT 1SM BR BKN004
     FM221400 VRB04KT P6SM SCT025
     FM221800 18006KT P6SM VCSH BKN035
     FM230000 20003KT P6SM SCT040=

USA.gov is the U.S. government's official web portal to all federal, state and local government web resources and services.